Home   Weather   Richmond Hill   Past weeks

Flag for Canada Past Weather in Richmond Hill, Ontario, Canada — Yesterday and Last 2 Weeks

Now
75 °F

Partly sunny.


Feels Like: 77 °F
Forecast: 63 / 73 °F
Wind: 12 mph from East

Location: Toronto Buttonville

Current Time: Jul 23, 2017 at 2:52:13 pm

Latest Report: Jul 23, 2017 at 2:00 pm


Visibility: 15 mi

Pressure: 29.78 "Hg

Humidity: 65%

Dew Point: 63 °F

Location of Richmond HillLocation

Past Weather in Richmond Hill — Graph

°F

Richmond Hill Temperature Yesterday

Maximum temperature yesterday: 77 °F (at 4:00 pm)
Minimum temperature yesterday: 68 °F (at 3:00 am)
Average temperature yesterday: 72 °F

High & Low Weather Summary for the Past Weeks

 TemperatureHumidityPressure
High86 °F (Jul 19, 4:00 pm)100% (Jul 11, 2:00 am)30.10 "Hg (Jul 11, 2:00 am)
Low59 °F (Jul 9, 6:00 am)38% (Jul 8, 5:00 pm)29.57 "Hg (Jul 20, 12:33 pm)
Average70 °F78%29.95 "Hg
* Reported Jul 8 1:00 pm — Jul 23 1:00 pm, Richmond Hill. Weather by CustomWeather, © 2017

Note: Actual official high and low records may vary slightly from our data, if they occured in-between our weather recording intervals... More about our weather records

Advertising

Richmond Hill Weather History for the Previous 24 Hours

Scroll right to see more
 ConditionsComfort  
Time TempWeatherWind HumidityBarometerVisibility
1:00 pm
Sun, Jul 23
73 °FOvercast.9 mph69%29.80 "Hg15 mi
12:00 pm72 °FOvercast.9 mph78%29.80 "Hg15 mi
11:00 am72 °FOvercast.8 mph78%29.80 "Hg12 mi
10:00 am70 °FOvercast.9 mph83%29.80 "Hg12 mi
9:00 am70 °FOvercast.9 mph83%29.80 "Hg15 mi
8:00 am68 °FPartly sunny.7 mph83%29.80 "Hg15 mi
7:00 am68 °FPartly sunny.5 mph83%29.79 "Hg12 mi
6:00 am68 °FMostly cloudy.6 mph83%29.78 "Hg12 mi
5:00 am68 °FPassing clouds.2 mph88%29.77 "Hg12 mi
4:00 am70 °FPassing clouds.2 mph83%29.77 "Hg13 mi
3:00 am70 °FPassing clouds.6 mph83%29.78 "Hg11 mi
2:26 am70 °FMostly cloudy.6 mph88%29.78 "Hg11 mi
1:00 am70 °FMostly cloudy.3 mph88%29.81 "Hg12 mi
12:00 am70 °FPartly cloudy.5 mph83%29.80 "Hg14 mi
11:00 pm
Sat, Jul 22
70 °FPartly cloudy.6 mph83%29.81 "Hg14 mi
10:29 pm72 °FMostly cloudy.2 mph78%29.83 "Hg12 mi
9:14 pm72 °FMostly cloudy.2 mph78%29.80 "Hg14 mi
9:00 pm72 °FSprinkles. Partly cloudy.3 mph78%29.80 "Hg14 mi
8:00 pm73 °FScattered showers. Broken clouds.7 mph74%29.80 "Hg13 mi
7:00 pm73 °FBroken clouds.5 mph74%29.80 "Hg12 mi
6:00 pm75 °FBroken clouds.8 mph69%29.79 "Hg12 mi
5:00 pm75 °FPartly sunny.7 mph69%29.81 "Hg12 mi
4:00 pm77 °FMore clouds than sun.3 mph61%29.82 "Hg12 mi
3:00 pm75 °FMostly cloudy.No wind65%29.84 "Hg12 mi
2:21 pm75 °FMostly cloudy.2 mph65%29.85 "Hg12 mi
2:00 pm73 °FLight rain. Overcast.2 mph69%29.86 "Hg12 mi
Weather by CustomWeather, © 2017

See weather overviewHow to use our weather pages